Weather History for LKPR - April, 2014

Change the Weather History Date:

Tuesday, April 15, 2014

  Actual Average Record
Temperature  
Mean Temperature 40 °F -  
Max Temperature 47 °F 60 °F 73 °F (2015)
Min Temperature 33 °F 40 °F 28 °F (1998)
Degree Days  
Heating Degree Days 25    
Moisture  
Dew Point 31 °F    
Average Humidity 68    
Maximum Humidity 87    
Minimum Humidity 45    
Precipitation  
Precipitation 0.00 in 0.08 in - ()
Sea Level Pressure  
Sea Level Pressure 30.06 in    
Wind  
Wind Speed 11 mph ()    
Max Wind Speed 21 mph    
Max Gust Speed -    
Visibility 8.0 miles    
Events Rain    
Averages and records for this station are not official NWS values.
T = Trace of Precipitation, MM = Missing Value Source: Averaged Metar Reports

Daily Weather History Graph

Daily Weather History Graph

Search for Another Location

Airport or City:

Trip Planner

Search our weather history database for the weather conditions in past years. The results will help you decide how hot, cold, wet, or windy it might be!

Date:

Astronomy

Apr. 15, 2014 Rise Set
Actual Time 6:10 AM CEST 7:56 PM CEST
Civil Twilight 5:36 AM CEST 8:31 PM CEST
Nautical Twilight 4:54 AM CEST 9:13 PM CEST
Astronomical Twilight 4:07 AM CEST 10:00 PM CEST
Moon 8:22 PM CEST (4/15) 6:08 AM CEST (4/15)
Length of Visible Light 14h 54m
Length of Day
13h 46m
Full, 100% of the Moon is Illuminated
Apr 15
Full
Apr 22
Last Quarter
Apr 29
New
May 7
First Quarter
May 14
Full

Hourly Weather History & Observations

Time (CEST) Temp. Windchill Dew Point Humidity Pressure Visibility Wind Dir Wind Speed Gust Speed Precip Events Conditions
12:00 AM 37 °F - 32 °F 77% 29.97 in 25 mi NW 6.7 mph - -   Partly Cloudy
12:00 AM 37.4 °F 32.1 °F 32.0 °F 81% 29.92 in 6.2 mi NW 6.9 mph - N/A   Scattered Clouds
12:30 AM 39.2 °F 35.0 °F 32.0 °F 75% 29.92 in 6.2 mi NW 5.8 mph - N/A   Mostly Cloudy
1:00 AM 38 °F - 31 °F 66% 29.99 in 25 mi West 11.2 mph - -   Mostly Cloudy
1:00 AM 39.2 °F 31.6 °F 30.2 °F 70% 29.92 in 6.2 mi West 12.7 mph - N/A   Mostly Cloudy
1:30 AM 37.4 °F 28.9 °F 30.2 °F 75% 29.95 in 6.2 mi West 13.8 mph - N/A   Mostly Cloudy
2:00 AM 38 °F - 30 °F 62% 29.99 in 25 mi West 11.2 mph - -   Mostly Cloudy
2:00 AM 37.4 °F 30.3 °F 30.2 °F 75% 29.95 in 6.2 mi West 10.4 mph - N/A   Mostly Cloudy
2:30 AM 37.4 °F 29.8 °F 28.4 °F 70% 29.95 in 6.2 mi West 11.5 mph - N/A   Partly Cloudy
3:00 AM 36 °F - 29 °F 65% 30.00 in 25 mi West 8.9 mph - -   Mostly Cloudy
3:00 AM 35.6 °F 27.1 °F 28.4 °F 75% 29.95 in 6.2 mi West 12.7 mph - N/A   Mostly Cloudy
3:30 AM 35.6 °F 28.6 °F 28.4 °F 75% 29.95 in 6.2 mi West 9.2 mph - N/A   Mostly Cloudy
4:00 AM 35 °F - 29 °F 72% 30.01 in 25 mi West 8.9 mph - -   Mostly Cloudy
4:00 AM 33.8 °F 26.4 °F 28.4 °F 81% 29.95 in 6.2 mi West 9.2 mph - N/A   Partly Cloudy
4:30 AM 35.6 °F 27.5 °F 30.2 °F 81% 29.95 in 6.2 mi WSW 11.5 mph - N/A   Partly Cloudy
5:00 AM 35 °F - 30 °F 76% 30.01 in 25 mi West 11.2 mph - -   Mostly Cloudy
5:00 AM 35.6 °F 27.1 °F 30.2 °F 81% 29.95 in 6.2 mi WSW 12.7 mph - N/A   Partly Cloudy
5:30 AM 35.6 °F 28.0 °F 30.2 °F 81% 29.95 in 6.2 mi West 10.4 mph - N/A   Partly Cloudy
6:00 AM 35 °F - 30 °F 77% 30.02 in 25 mi West 11.2 mph - -   Partly Cloudy
6:00 AM 35.6 °F 28.0 °F 30.2 °F 81% 29.95 in 6.2 mi West 10.4 mph - N/A   Partly Cloudy
6:30 AM 35.6 °F 27.1 °F 30.2 °F 81% 29.98 in 6.2 mi West 12.7 mph - N/A   Mostly Cloudy
7:00 AM 36 °F - 31 °F 77% 30.03 in 25 mi West 11.2 mph - - Rain Light Rain
7:00 AM 35.6 °F 27.1 °F 32.0 °F 87% 29.98 in 6.2 mi WSW 12.7 mph - N/A   Mostly Cloudy
7:30 AM 37.4 °F 28.5 °F 32.0 °F 81% 29.98 in 6.2 mi West 15.0 mph - N/A Rain Light Rain
7:52 AM 37.4 °F 28.2 °F 32.0 °F 81% 29.98 in 6.2 mi West 16.1 mph - N/A   Mostly Cloudy
8:00 AM 38 °F - 32 °F 72% 30.04 in 22 mi West 13.4 mph - - Rain Light Rain
8:00 AM 37.4 °F 28.2 °F 32.0 °F 81% 29.98 in 6.2 mi West 16.1 mph - N/A   Mostly Cloudy
8:30 AM 39.2 °F 29.8 °F 32.0 °F 75% 29.98 in 6.2 mi West 18.4 mph - N/A   Mostly Cloudy
9:00 AM 40 °F - 33 °F 67% 30.05 in 19 mi WNW 13.4 mph - -   Mostly Cloudy
9:00 AM 39.2 °F 30.2 °F 32.0 °F 75% 30.01 in 6.2 mi WNW 17.3 mph - N/A   Mostly Cloudy
9:30 AM 39.2 °F 30.2 °F 32.0 °F 75% 30.01 in 6.2 mi West 17.3 mph - N/A   Mostly Cloudy
10:00 AM 40 °F - 32 °F 65% 30.08 in 19 mi WNW 13.4 mph - -   Mostly Cloudy
10:00 AM 39.2 °F 30.2 °F 32.0 °F 75% 30.04 in 6.2 mi WNW 17.3 mph - N/A   Mostly Cloudy
10:30 AM 39.2 °F 32.5 °F 32.0 °F 75% 30.04 in 6.2 mi WNW 10.4 mph - N/A   Mostly Cloudy
11:00 AM 40 °F - 32 °F 63% 30.10 in 19 mi NW 11.2 mph - -   Mostly Cloudy
11:00 AM 41.0 °F 33.5 °F 32.0 °F 70% 30.04 in 6.2 mi WNW 13.8 mph - N/A   Mostly Cloudy
11:30 AM 41.0 °F 33.5 °F 32.0 °F 70% 30.06 in 6.2 mi WNW 13.8 mph - N/A   Mostly Cloudy
12:00 PM 42 °F - 33 °F 60% 30.10 in 16 mi NW 13.4 mph - -   Mostly Cloudy
12:00 PM 41.0 °F 33.5 °F 32.0 °F 70% 30.06 in 6.2 mi WNW 13.8 mph - N/A   Mostly Cloudy
12:30 PM 42.8 °F 34.8 °F 32.0 °F 66% 30.06 in 6.2 mi WNW 17.3 mph - N/A   Mostly Cloudy
1:00 PM 43 °F - 33 °F 57% 30.11 in 16 mi NW 17.9 mph - -   Mostly Cloudy
1:00 PM 42.8 °F 34.8 °F 32.0 °F 66% 30.06 in 6.2 mi WNW 17.3 mph - N/A   Mostly Cloudy
1:30 PM 42.8 °F 35.4 °F 32.0 °F 66% 30.06 in 6.2 mi WNW 15.0 mph - N/A   Mostly Cloudy
2:00 PM 46 °F - 33 °F 50% 30.11 in 16 mi NW 15.7 mph - -   Mostly Cloudy
2:00 PM 46.4 °F 39.8 °F 33.8 °F 62% 30.06 in 6.2 mi WNW 16.1 mph - N/A   Mostly Cloudy
2:30 PM 44.6 °F 37.4 °F 32.0 °F 61% 30.09 in 6.2 mi NW 16.1 mph - N/A   Mostly Cloudy
3:00 PM 45 °F - 31 °F 47% 30.12 in 19 mi NW 17.9 mph - -   Mostly Cloudy
3:00 PM 46.4 °F 39.8 °F 32.0 °F 57% 30.09 in 6.2 mi WNW 16.1 mph - N/A   Mostly Cloudy
3:30 PM 46.4 °F 39.8 °F 32.0 °F 57% 30.09 in 6.2 mi WNW 16.1 mph - N/A   Mostly Cloudy
4:00 PM 47 °F - 33 °F 46% 30.12 in 19 mi WNW 15.7 mph - -   Mostly Cloudy
4:00 PM 46.4 °F 38.7 °F 33.8 °F 62% 30.09 in 6.2 mi WNW 20.7 mph - N/A   Scattered Clouds
4:30 PM 46.4 °F 39.0 °F 32.0 °F 57% 30.09 in 6.2 mi WNW 19.6 mph - N/A   Scattered Clouds
5:00 PM 46 °F - 32 °F 45% 30.13 in 19 mi NW 17.9 mph - -   Partly Cloudy
5:00 PM 46.4 °F 38.7 °F 32.0 °F 57% 30.09 in 6.2 mi WNW 20.7 mph - N/A   Partly Cloudy
5:30 PM 44.6 °F 36.4 °F 32.0 °F 61% 30.09 in 6.2 mi WNW 20.7 mph - N/A   Partly Cloudy
6:00 PM 43 °F - 32 °F 54% 30.15 in 22 mi NW 15.7 mph - -   Mostly Cloudy
6:00 PM 42.8 °F 34.5 °F 32.0 °F 66% 30.09 in 6.2 mi WNW 18.4 mph - N/A   Scattered Clouds
6:30 PM 42.8 °F 34.3 °F 32.0 °F 66% 30.12 in 6.2 mi WNW 19.6 mph - N/A   Scattered Clouds
7:00 PM 41 °F - 31 °F 56% 30.16 in 22 mi WNW 8.9 mph - -   Scattered Clouds
7:00 PM 41.0 °F 33.9 °F 30.2 °F 65% 30.12 in 6.2 mi West 12.7 mph - N/A   Partly Cloudy
7:30 PM 41.0 °F 35.2 °F 30.2 °F 65% 30.12 in 6.2 mi West 9.2 mph - N/A   Partly Cloudy
8:00 PM 41 °F - 28 °F 48% 30.17 in 22 mi WNW 13.4 mph - -   Scattered Clouds
8:00 PM 41.0 °F 33.5 °F 28.4 °F 61% 30.12 in 6.2 mi West 13.8 mph - N/A   Partly Cloudy
8:30 PM 41.0 °F 33.9 °F 28.4 °F 61% 30.12 in 6.2 mi West 12.7 mph - N/A   Scattered Clouds
9:00 PM 41 °F - 29 °F 52% 30.20 in 22 mi West 11.2 mph - -   Mostly Cloudy
9:00 PM 41.0 °F 33.9 °F 30.2 °F 65% 30.15 in 6.2 mi West 12.7 mph - N/A   Mostly Cloudy
9:30 PM 41.0 °F 34.3 °F 30.2 °F 65% 30.15 in 6.2 mi West 11.5 mph - N/A   Mostly Cloudy
9:46 PM 41.0 °F 34.3 °F 30.2 °F 65% 30.15 in 6.2 mi WNW 11.5 mph - N/A Rain Light Rain
10:00 PM 41 °F - 31 °F 56% 30.22 in 22 mi NW 13.4 mph - - Rain Light Rain
10:00 PM 41.0 °F 33.9 °F 30.2 °F 65% 30.15 in 6.2 mi NW 12.7 mph - N/A Rain Light Rain
10:30 PM 39.2 °F 32.5 °F 33.8 °F 81% 30.18 in 6.2 mi NW 10.4 mph - N/A Rain Light Rain
11:00 PM 40 °F - 34 °F 72% 30.23 in 22 mi NW 8.9 mph - - Rain Light Rain
11:00 PM 39.2 °F 33.0 °F 33.8 °F 81% 30.18 in 6.2 mi NW 9.2 mph - N/A Rain Light Rain
11:30 PM 39.2 °F 33.6 °F 33.8 °F 81% 30.18 in 6.2 mi NW 8.1 mph - N/A Rain Light Rain
11:52 PM 39.2 °F 33.0 °F 33.8 °F 81% 30.18 in 6.2 mi WNW 9.2 mph - N/A   Overcast